Weather History for KORC - December, 2013

Change the Weather History Date:

Friday, December 6, 2013

  Actual Average Record
Temperature  
Mean Temperature -5 °F -  
Max Temperature 1 °F 34 °F 52 °F (1949)
Min Temperature -11 °F 20 °F -14 °F (2005)
Degree Days  
Heating Degree Days 70    
Moisture  
Dew Point -12 °F    
Average Humidity 73    
Maximum Humidity 78    
Minimum Humidity 66    
Precipitation  
Precipitation 0.00 in - - ()
Sea Level Pressure  
Sea Level Pressure 30.50 in    
Wind  
Wind Speed 12 mph (WNW)    
Max Wind Speed 17 mph    
Max Gust Speed 18 mph    
Visibility 10 miles    
Events      
Averages and records for this station are not official NWS values.
T = Trace of Precipitation, MM = Missing Value Source: NWS Daily Summary

Daily Weather History Graph

Daily Weather History Graph

Search for Another Location

Airport or City:

Trip Planner

Search our weather history database for the weather conditions in past years. The results will help you decide how hot, cold, wet, or windy it might be!

Date:

Astronomy

Dec. 06, 2013 Rise Set
Actual Time 7:41 AM CST 4:49 PM CST
Civil Twilight 7:09 AM CST 5:21 PM CST
Nautical Twilight 6:33 AM CST 5:57 PM CST
Astronomical Twilight 5:59 AM CST 6:31 PM CST
Moon 10:43 AM CST (12/6) 9:26 PM CST (12/6)
Length of Visible Light 10h 12m
Length of Day
9h 08m
Waxing Crescent, 19% of the Moon is Illuminated
Dec 6
Waxing Crescent
Dec 9
First Quarter
Dec 17
Full
Dec 25
Last Quarter
Jan 1
New

Hourly Weather History & Observations

Time (CST) Temp. Windchill Dew Point Humidity Pressure Visibility Wind Dir Wind Speed Gust Speed Precip Events Conditions
12:15 AM -2.2 °F -20.7 °F -9.4 °F 71% 30.37 in 10.0 mi WNW 12.7 mph - N/A   Clear
12:35 AM -4.0 °F -23.0 °F -9.4 °F 78% 30.37 in 10.0 mi WNW 12.7 mph - N/A   Clear
12:55 AM -4.0 °F -23.0 °F -11.2 °F 71% 30.37 in 10.0 mi NW 12.7 mph - N/A   Clear
1:15 AM -4.0 °F -25.2 °F -11.2 °F 71% 30.37 in 10.0 mi NW 16.1 mph - N/A   Clear
1:35 AM -4.0 °F -23.0 °F -11.2 °F 71% 30.36 in 10.0 mi NW 12.7 mph - N/A   Clear
1:55 AM -5.8 °F -26.8 °F -11.2 °F 77% 30.36 in 10.0 mi NW 15.0 mph 18.4 mph N/A   Clear
2:15 AM -5.8 °F -27.5 °F -11.2 °F 77% 30.37 in 10.0 mi NW 16.1 mph - N/A   Clear
2:35 AM -5.8 °F -27.5 °F -13.0 °F 71% 30.37 in 10.0 mi NW 16.1 mph - N/A   Clear
2:55 AM -5.8 °F -26.0 °F -13.0 °F 71% 30.38 in 10.0 mi NW 13.8 mph - N/A   Clear
3:15 AM -7.6 °F -27.5 °F -13.0 °F 77% 30.39 in 10.0 mi WNW 12.7 mph - N/A   Clear
3:35 AM -7.6 °F -28.3 °F -13.0 °F 77% 30.40 in 10.0 mi WNW 13.8 mph - N/A   Clear
3:55 AM -7.6 °F -28.3 °F -14.8 °F 71% 30.39 in 10.0 mi WNW 13.8 mph - N/A   Clear
4:15 AM -7.6 °F -28.3 °F -14.8 °F 71% 30.40 in 10.0 mi NW 13.8 mph - N/A   Clear
4:35 AM -7.6 °F -26.6 °F -14.8 °F 71% 30.41 in 10.0 mi WNW 11.5 mph - N/A   Clear
4:55 AM -7.6 °F -26.6 °F -14.8 °F 71% 30.42 in 10.0 mi NW 11.5 mph - N/A   Clear
5:15 AM -7.6 °F -26.6 °F -14.8 °F 71% 30.42 in 10.0 mi WNW 11.5 mph - N/A   Clear
5:35 AM -9.4 °F -26.8 °F -14.8 °F 77% 30.44 in 10.0 mi NW 9.2 mph - N/A   Clear
5:55 AM -9.4 °F -29.8 °F -14.8 °F 77% 30.44 in 10.0 mi WNW 12.7 mph - N/A   Clear
6:15 AM -9.4 °F -25.6 °F -14.8 °F 77% 30.45 in 10.0 mi WNW 8.1 mph - N/A   Clear
6:35 AM -9.4 °F -25.6 °F -16.6 °F 71% 30.45 in 10.0 mi WNW 8.1 mph - N/A   Clear
6:55 AM -9.4 °F -18.6 °F -16.6 °F 71% 30.46 in 10.0 mi NW 3.5 mph - N/A   Clear
7:15 AM -11.2 °F - -16.6 °F 77% 30.47 in 10.0 mi Calm Calm - N/A   Clear
7:35 AM -11.2 °F -23.0 °F -18.4 °F 70% 30.47 in 10.0 mi West 4.6 mph - N/A   Clear
7:55 AM -11.2 °F -23.0 °F -16.6 °F 77% 30.48 in 10.0 mi West 4.6 mph - N/A   Clear
8:15 AM -11.2 °F -23.0 °F -16.6 °F 77% 30.48 in 10.0 mi WNW 4.6 mph - N/A   Clear
8:35 AM -9.4 °F -25.6 °F -16.6 °F 71% 30.48 in 10.0 mi WNW 8.1 mph - N/A   Clear
8:55 AM -7.6 °F -20.6 °F -14.8 °F 71% 30.50 in 10.0 mi WNW 5.8 mph - N/A   Clear
9:15 AM -7.6 °F -24.6 °F -14.8 °F 71% 30.50 in 10.0 mi NW 9.2 mph - N/A   Clear
9:35 AM -5.8 °F -23.4 °F -13.0 °F 71% 30.51 in 10.0 mi NW 10.4 mph - N/A   Clear
9:55 AM -5.8 °F -23.4 °F -11.2 °F 77% 30.52 in 10.0 mi NW 10.4 mph - N/A   Clear
10:15 AM -5.8 °F -25.2 °F -11.2 °F 77% 30.52 in 10.0 mi WNW 12.7 mph - N/A   Clear
10:35 AM -4.0 °F -23.0 °F -11.2 °F 71% 30.53 in 10.0 mi WNW 12.7 mph - N/A   Clear
10:55 AM -2.2 °F -19.9 °F -9.4 °F 71% 30.53 in 10.0 mi WNW 11.5 mph - N/A   Clear
11:15 AM -2.2 °F -19.9 °F -9.4 °F 71% 30.52 in 10.0 mi NW 11.5 mph 16.1 mph N/A   Clear
11:35 AM -2.2 °F -20.7 °F -9.4 °F 71% 30.52 in 10.0 mi NW 12.7 mph - N/A   Clear
11:55 AM -0.4 °F -17.6 °F -7.6 °F 72% 30.52 in 10.0 mi WNW 11.5 mph - N/A   Clear
12:15 PM -0.4 °F -18.4 °F -7.6 °F 72% 30.51 in 10.0 mi WNW 12.7 mph - N/A   Clear
12:35 PM -0.4 °F -19.2 °F -7.6 °F 72% 30.51 in 10.0 mi WNW 13.8 mph - N/A   Scattered Clouds
12:55 PM 1.4 °F -17.6 °F -5.8 °F 72% 30.50 in 10.0 mi WNW 15.0 mph - N/A   Clear
1:15 PM 1.4 °F -18.2 °F -5.8 °F 72% 30.50 in 10.0 mi WNW 16.1 mph - N/A   Clear
1:35 PM 1.4 °F -18.8 °F -5.8 °F 72% 30.50 in 10.0 mi WNW 17.3 mph - N/A   Clear
1:55 PM 1.4 °F -16.1 °F -5.8 °F 72% 30.51 in 10.0 mi WNW 12.7 mph - N/A   Clear
2:15 PM 1.4 °F -17.6 °F -7.6 °F 66% 30.51 in 10.0 mi WNW 15.0 mph - N/A   Clear
2:35 PM 1.4 °F -17.6 °F -7.6 °F 66% 30.51 in 10.0 mi WNW 15.0 mph - N/A   Clear
2:55 PM 1.4 °F -18.2 °F -7.6 °F 66% 30.51 in 10.0 mi WNW 16.1 mph - N/A   Clear
3:15 PM 1.4 °F -18.8 °F -7.6 °F 66% 30.52 in 10.0 mi NW 17.3 mph - N/A   Clear
3:35 PM 1.4 °F -18.2 °F -7.6 °F 66% 30.52 in 10.0 mi WNW 16.1 mph - N/A   Clear
3:55 PM -0.4 °F -19.9 °F -7.6 °F 72% 30.52 in 10.0 mi WNW 15.0 mph - N/A   Clear
4:15 PM -0.4 °F -19.9 °F -7.6 °F 72% 30.53 in 10.0 mi WNW 15.0 mph - N/A   Clear
4:35 PM -0.4 °F -21.2 °F -9.4 °F 66% 30.54 in 10.0 mi NW 17.3 mph - N/A   Clear
5:55 PM -5.8 °F -22.4 °F -11.2 °F 77% 30.56 in 10.0 mi WNW 9.2 mph - N/A   Clear
6:15 PM -5.8 °F -23.4 °F -11.2 °F 77% 30.56 in 10.0 mi NW 10.4 mph - N/A   Clear
6:35 PM -5.8 °F -22.4 °F -11.2 °F 77% 30.57 in 10.0 mi WNW 9.2 mph - N/A   Clear
6:55 PM -5.8 °F -22.4 °F -11.2 °F 77% 30.58 in 10.0 mi NW 9.2 mph - N/A   Clear
7:15 PM -5.8 °F -22.4 °F -11.2 °F 77% 30.58 in 10.0 mi NW 9.2 mph - N/A   Clear
7:35 PM -5.8 °F -21.2 °F -11.2 °F 77% 30.59 in 10.0 mi NW 8.1 mph - N/A   Clear
7:55 PM -7.6 °F -23.4 °F -14.8 °F 71% 30.60 in 10.0 mi WNW 8.1 mph - N/A   Clear
8:15 PM -7.6 °F -24.6 °F -13.0 °F 77% 30.60 in 10.0 mi NW 9.2 mph - N/A   Clear
8:35 PM -7.6 °F -23.4 °F -13.0 °F 77% 30.60 in 10.0 mi NW 8.1 mph - N/A   Clear
8:55 PM -7.6 °F -22.1 °F -13.0 °F 77% 30.61 in 10.0 mi NW 6.9 mph - N/A   Clear
9:15 PM -7.6 °F -22.1 °F -14.8 °F 71% 30.61 in 10.0 mi NW 6.9 mph - N/A   Clear
9:35 PM -7.6 °F -23.4 °F -14.8 °F 71% 30.61 in 10.0 mi NW 8.1 mph - N/A   Clear
9:55 PM -7.6 °F -23.4 °F -14.8 °F 71% 30.62 in 10.0 mi NW 8.1 mph - N/A   Clear
10:15 PM -9.4 °F -24.3 °F -14.8 °F 77% 30.63 in 10.0 mi WNW 6.9 mph - N/A   Clear
10:35 PM -9.4 °F -18.6 °F -14.8 °F 77% 30.63 in 10.0 mi WNW 3.5 mph - N/A   Clear
10:55 PM -9.4 °F -20.9 °F -14.8 °F 77% 30.64 in 10.0 mi WNW 4.6 mph - N/A   Clear
11:15 PM -11.2 °F -24.8 °F -16.6 °F 77% 30.64 in 10.0 mi West 5.8 mph - N/A   Clear
11:35 PM -9.4 °F -20.9 °F -14.8 °F 77% 30.64 in 10.0 mi NW 4.6 mph - N/A   Clear
11:55 PM -7.6 °F -20.6 °F -14.8 °F 71% 30.63 in 10.0 mi NNW 5.8 mph - N/A   Clear